Regional Weather Roundup
Issued by NWS

Home | Current Version | Previous Version | Graphics & Text | Print | Product List | Glossary On
Versions: 1 2 3 4 5 6 7 8 9 10 11 12 13 14 15 16 17 18 19 20 21 22 23 24 25 26 27 28 29 30 31 32 33 34 35 36 37 38 39 40 41 42 43 44 45 46 47 48 49 50
000
ASUS45 KBOU 270107
RWRCO

WEATHER ROUNDUP FOR COLORADO
NATIONAL WEATHER SERVICE DENVER/BOULDER CO
600 PM MST MON JAN 26 2015

NOTE: "FAIR" INDICATES FEW OR NO CLOUDS BELOW 12000 FEET WITH NO
SIGNIFICANT WEATHER AND/OR OBSTRUCTIONS TO VISIBILITY.

COZ001>005-013-030-031-270200-
...NORTHWEST COLORADO...

CITY           SKY/WX    TMP DP  RH WIND       PRES   REMARKS
CRAIG          CLEAR     27  22  81 CALM      30.33F
HAYDEN         CLEAR     37  23  56 E9        30.33F
MEEKER         CLEAR     29  22  75 CALM      30.32S
MOUNT WERNER   NOT AVBL
STEAMBOAT SPGS CLEAR     35  25  67 CALM      30.35S
WALDEN         CLEAR     36  25  64 CALM      30.39S
$$

COZ006>008-011-270200-
...WEST CENTRAL VALLEYS...

CITY           SKY/WX    TMP DP  RH WIND       PRES   REMARKS
GRAND JUNCTION CLEAR     47  26  44 E3        30.23F
MONTROSE       CLEAR     43  23  45 E3        30.29S
EAGLE          CLEAR     37  27  65 E5        30.38R
RIFLE          CLEAR     39  26  59 CALM      30.27S
DELTA          CLEAR     49  25  39 CALM      30.27S
NUCLA          CLEAR     54  23  30 CALM      30.32R
$$

COZ017>023-064>068-270200-
...SOUTHWEST COLORADO...

CITY           SKY/WX    TMP DP  RH WIND       PRES   REMARKS
DURANGO        CLEAR     49  24  37 S3        30.34R
CORTEZ         CLEAR     38  23  55 CALM      30.31S
PAGOSA SPRINGS CLEAR     49  21  33 W9        30.38R
TELLURIDE      CLEAR     47  17  30 E3        30.42R
WOLF CREEK PAS NOT AVBL
$$

COZ009-010-012-014-032>034-037-058>063-270200-
...CENTRAL COLORADO...

CITY           SKY/WX    TMP DP  RH WIND       PRES   REMARKS
ASPEN          CLEAR     35  23  61 S8        30.36R WCI  29
BUENA VISTA    CLEAR     40  22  50 NW8       30.36S
COPPER MTN     PTCLDY    41   9  26 S7        30.56S
BERTHOUD PASS  FAIR      32  28  86 CALM      30.59S
COTTONWOOD PAS CLEAR     50   9  18 W6        30.46S
GUNNISON       PTCLDY    19  10  68 CALM      30.46R
KREMMLING      CLEAR     27  21  80 CALM      30.44R
LEADVILLE      CLEAR     37  12  35 E5        30.44R
MONARCH PASS   CLEAR     36   9  32 E8        30.66S
SALIDA         CLEAR     45  21  39 SW16      30.43R
SUNLIGHT       CLEAR     39  14  35 CALM      30.50S
WILKERSON PASS CLEAR     37  10  32 CALM      30.56R
$$

COZ069>075-270200-
...SAN LUIS VALLEY/SANGRE DE CRISTO MOUNTAINS...

CITY           SKY/WX    TMP DP  RH WIND       PRES   REMARKS
ALAMOSA        PTCLDY    37  21  52 NE5       30.39R
LA VETA PASS   NOT AVBL
SAGUACHE       PTCLDY    28  23  80 N5        30.42S WCI  23
$$

COZ035-036-038>040-270200-
...NORTHERN COLORADO FRONT RANGE...

CITY           SKY/WX    TMP DP  RH WIND       PRES   REMARKS
DENVER INTL AP CLEAR     54  24  31 S13       30.21S
DMNS CITY PARK   N/A     60  19  20 SE5       30.20S
AURORA         CLEAR     51  25  37 SE13      30.23S
FRONT RANGE AP NOT AVBL
ERIE MUNI ARPT CLEAR     49  22  34 CALM      30.19S
BOULDER MUN AP CLEAR     57  25  28 SW6       30.20S
CENTENNIAL     CLEAR     54  24  31 S10       30.24R
BROOMFIELD     NOT AVBL
FORT COLLINS   CLEAR     57  25  28 S8        30.19S
LONGMONT       CLEAR     51  24  35 W3        30.21R
$$

COZ041-046-047-076>085-087-088-270200-
...PIKES PEAK/PALMER DIVIDE AND SOUTHERN FOOTHILLS...

CITY           SKY/WX    TMP DP  RH WIND       PRES   REMARKS
COLO. SPRINGS  PTCLDY    52  25  35 SE6       30.28S
A. F. ACADEMY  CLEAR     52  21  30 VRB1      30.29R
ELLICOTT       CLEAR    N/A N/A N/A S5        30.28R
FALCON         CLEAR     46  25  45 CALM      30.32S
FORT CARSON    CLEAR     53  28  37 SW7       30.25S
LIMON          CLEAR     36  24  62 CALM      30.23S
MONUMENT HILL  CLEAR     41  25  52 SE7       30.31R
TRINIDAD       CLEAR     50  35  56 S9        30.28R
$$

COZ042>045-048>051-090-091-270200-
...NORTHEAST COLORADO...

CITY           SKY/WX    TMP DP  RH WIND       PRES   REMARKS
GREELEY ARPT   CLEAR     55  27  33 SW9       30.16R
AKRON          CLEAR     47  29  49 SW9       30.17R
BURLINGTON     CLEAR     48  33  56 W7        30.18R
WRAY           CLEAR     49  32  53 W7        30.12F
STERLING       CLEAR     45  32  61 W6        30.13R
HOLYOKE        CLEAR     43  30  61 SW6       30.12S
FORT MORGAN    CLEAR     56  28  34 CALM      30.17S
$$

COZ086-089-092>099-270200-
...SOUTHEAST COLORADO...

CITY           SKY/WX    TMP DP  RH WIND       PRES   REMARKS
PUEBLO         CLEAR     51  27  39 E5        30.20S
LA JUNTA       CLEAR     53  34  48 SW10      30.19S
LAMAR          CLEAR     49  34  56 S9        30.17R
SPRINGFIELD      N/A     45  30  55 W9        30.22R
$$


USA.gov is the U.S. government's official web portal to all federal, state and local government web resources and services.